Location: Koslow
(50.3020°N, 18.5663°E)
Time: 08:14:46
(UTC+00:00)

STARLINK-1357 - Pass Details

Date: 02 October 2020
Orbit: 548 x 551 km, 53.0° (Epoch: 31 October)

Event Time Altitude Azimuth Distance (km) Brightness Sun altitude
Exits shadow 04:11:58 - 285° (WNW) 2,045 5.9 -6.6°
Reaches altitude 10° 04:12:31 10° 286° (WNW) 1,830 5.7 -6.5°
Maximum altitude 04:16:38 61° 7° (N) 630 4.0 -5.8°
Drops below altitude 10° 04:20:46 10° 89° (E) 1,831 8.2 -5.2°
Sets 04:23:02 0° 93° (E) 2,725 10.2 -4.8°
